Location: Bou Ouachlou
(32.7770°N, 5.6009°W)
Time: 01:59:39
(UTC+00:00)

SL-4 R/B - Pass Details

Date: 07 June 2020
Orbit: 428 x 666 km, 51.6° (Epoch: 05 July)

Event Time Altitude Azimuth Distance (km) Brightness Sun altitude
Rises 04:27:34 0° 302° (WNW) 2,963 5.5 -9.2°
Reaches altitude 10° 04:30:13 10° 291° (WNW) 2,023 4.6 -8.7°
Maximum altitude 04:34:07 27° 234° (SW) 1,189 3.1 -8.0°
Drops below altitude 10° 04:37:49 10° 176° (S) 1,906 4.5 -7.4°
Sets 04:40:16 0° 164° (SSE) 2,758 5.4 -7.0°
